This is the latest recevied weather packets stored in our database for station/object KD7JB. If no packets are shown the sender has not sent any weather packets the latest 10 day(s).
| Time | Temp. | Humidity | Pressure | Rain* | Wind** | Luminosity | Snow |
|---|---|---|---|---|---|---|---|
| 1777732930 | 11.67° C | 57% | 1178.5 hPa | 0 mm | - | 100 W/m² | - |
| 1777732626 | 11.67° C | 59% | 1178.4 hPa | 0 mm | - | 91 W/m² | - |
| 1777732324 | 11.11° C | 60% | 1178.3 hPa | 0 mm | - | 73 W/m² | - |
| 1777732021 | 11.67° C | 60% | 1178.4 hPa | 0 mm | - | 66 W/m² | - |
| 1777731717 | 11.67° C | 59% | 1178.4 hPa | 0 mm | - | 65 W/m² | - |
| 1777731414 | 11.67° C | 59% | 1178.2 hPa | 0 mm | - | 64 W/m² | - |
| 1777731113 | 12.78° C | 55% | 1178.2 hPa | 0 mm | - | 62 W/m² | - |
| 1777730811 | 13.33° C | 55% | 1178 hPa | 0 mm | - | 57 W/m² | - |
| 1777730507 | 12.78° C | 54% | 1178 hPa | 0 mm | - | 51 W/m² | - |
| 1777730203 | 13.33° C | 53% | 1177.9 hPa | 0 mm | - | 43 W/m² | - |
| 1777729900 | 12.78° C | 53% | 1178 hPa | 0 mm | - | 33 W/m² | - |
| 1777729597 | 13.33° C | 54% | 1178.1 hPa | 0 mm | - | 28 W/m² | - |
| 1777729293 | 12.78° C | 53% | 1178.3 hPa | 0 mm | - | 22 W/m² | - |
| 1777728990 | 12.78° C | 54% | 1178.5 hPa | 0 mm | - | 19 W/m² | - |
| 1777728687 | 12.78° C | 54% | 1178.4 hPa | 0 mm | - | 17 W/m² | - |
| 1777728384 | 12.78° C | 53% | 1178.4 hPa | 0 mm | - | 17 W/m² | - |
| 1777728081 | 12.78° C | 54% | 1178.4 hPa | 0 mm | - | 15 W/m² | - |
| 1777727778 | 12.78° C | 54% | 1178.3 hPa | 0 mm | - | 13 W/m² | - |
| 1777727475 | 12.78° C | 53% | 1178.2 hPa | 0 mm | - | 11 W/m² | - |
| 1777727172 | 12.78° C | 54% | 1178.1 hPa | 0 mm | - | 9 W/m² | - |
| 1777726870 | 12.78° C | 54% | 1178.2 hPa | 0 mm | - | 7 W/m² | - |
| 1777726566 | 12.78° C | 53% | 1178.1 hPa | 0 mm | - | 5 W/m² | - |
| 1777726264 | 12.78° C | 54% | 1178.2 hPa | 0 mm | - | 4 W/m² | - |
| 1777725960 | 12.78° C | 53% | 1178.1 hPa | 0 mm | - | 2 W/m² | - |
| 1777725657 | 12.78° C | 52% | 1178 hPa | 0 mm | - | 1 W/m² | - |
* Rain latest hour (hover to see other rain measurements)
** Current wind speed in m/s (hover to see current wind gust speed)